This is the latest recevied weather packets stored in our database for station/object N5UKZ-WX. If no packets are shown the sender has not sent any weather packets the latest 10 day(s).
| Time | Temp. | Humidity | Pressure | Rain* | Wind** | Luminosity | Snow |
|---|---|---|---|---|---|---|---|
| 1787647931 | 24.44° C | 100% | 1015.6 hPa | 0 mm | - | - | - |
| 1787647031 | 24.44° C | 100% | 1015.6 hPa | 0 mm | - | - | - |
| 1787646101 | 24.44° C | 100% | 1015.6 hPa | 0 mm | - | - | - |
| 1787645171 | 24.44° C | 100% | 1015.3 hPa | 0 mm | - | - | - |
| 1787644271 | 25° C | 100% | 1015.3 hPa | 0 mm | - | - | - |
| 1787643341 | 25° C | 100% | 1015.3 hPa | 0 mm | - | - | - |
| 1787642411 | 23.89° C | 100% | 1015.3 hPa | 0 mm | - | - | - |
| 1787641481 | 24.44° C | 100% | 1015.6 hPa | 0 mm | - | - | - |
| 1787640581 | 25° C | 100% | 1015.6 hPa | 0 mm | - | - | - |
| 1787639651 | 24.44° C | 100% | 1015.6 hPa | 0 mm | - | - | - |
| 1787638721 | 23.89° C | 100% | 1016 hPa | 0 mm | - | - | - |
| 1787637821 | 23.89° C | 100% | 1016 hPa | 0 mm | - | - | - |
| 1787636891 | 24.44° C | 100% | 1016 hPa | 0 mm | - | - | - |
| 1787635961 | 24.44° C | 100% | 1016 hPa | 0 mm | - | - | - |
| 1787635031 | 24.44° C | 100% | 1016 hPa | 0 mm | - | - | - |
| 1787634131 | 25° C | 100% | 1016 hPa | 0 mm | - | - | - |
| 1787633201 | 25° C | 100% | 1016 hPa | 0 mm | - | - | - |
| 1787632271 | 24.44° C | 100% | 1016 hPa | 0 mm | - | - | - |
| 1787631341 | 25° C | 100% | 1016 hPa | 0 mm | - | - | - |
| 1787630441 | 24.44° C | 100% | 1016 hPa | 0 mm | - | - | - |
| 1787629511 | 24.44° C | 100% | 1016.3 hPa | 0 mm | - | - | - |
| 1787628611 | 25° C | 100% | 1016 hPa | 0 mm | - | - | - |
| 1787627711 | 25° C | 100% | 1016.3 hPa | 0 mm | - | - | - |
| 1787626781 | 24.44° C | 100% | 1016.3 hPa | 0 mm | - | - | - |
| 1787625851 | 24.44° C | 100% | 1016 hPa | 0 mm | - | - | - |
* Rain latest hour (hover to see other rain measurements)
** Current wind speed in m/s (hover to see current wind gust speed)